TimeEDT,TemperatureF,Dew PointF,Humidity,Sea Level PressureIn,VisibilityMPH,Wind Direction,Wind SpeedMPH,Gust SpeedMPH,PrecipitationIn,Events,Conditions,WindDirDegrees,DateUTC
12:53 AM,68.0,66.0,93,29.99,10.0,Calm,Calm,-,N/A,,Clear,0,2013-08-02 04:53:00
1:53 AM,66.9,64.9,93,29.99,9.0,Calm,Calm,-,N/A,,Clear,0,2013-08-02 05:53:00
2:53 AM,66.9,64.9,93,29.97,8.0,Calm,Calm,-,N/A,,Clear,0,2013-08-02 06:53:00
3:53 AM,66.0,64.0,93,29.98,9.0,Calm,Calm,-,N/A,,Clear,0,2013-08-02 07:53:00
4:40 AM,64.4,64.4,100,30.02,7.0,Calm,Calm,-,N/A,,Partly Cloudy,0,2013-08-02 08:40:00
4:53 AM,64.9,63.0,93,29.98,7.0,Calm,Calm,-,N/A,,Partly Cloudy,0,2013-08-02 08:53:00
5:05 AM,64.4,64.4,100,30.02,4.0,Calm,Calm,-,N/A,,Mostly Cloudy,0,2013-08-02 09:05:00
5:12 AM,64.4,64.4,100,30.02,1.5,Calm,Calm,-,N/A,,Mostly Cloudy,0,2013-08-02 09:12:00
5:20 AM,64.4,62.6,94,30.03,0.8,Calm,Calm,-,N/A,,Mist,0,2013-08-02 09:20:00
5:29 AM,64.4,62.6,94,30.03,1.8,Calm,Calm,-,N/A,,Mostly Cloudy,0,2013-08-02 09:29:00
5:33 AM,64.4,62.6,94,30.03,3.0,Calm,Calm,-,N/A,,Mostly Cloudy,0,2013-08-02 09:33:00
5:53 AM,64.0,63.0,96,29.99,6.0,Calm,Calm,-,N/A,,Partly Cloudy,0,2013-08-02 09:53:00
6:53 AM,64.0,62.1,93,30.01,5.0,Calm,Calm,-,N/A,,Partly Cloudy,0,2013-08-02 10:53:00
7:13 AM,64.4,62.6,94,30.05,2.5,Calm,Calm,-,N/A,,Mostly Cloudy,0,2013-08-02 11:13:00
7:19 AM,64.4,62.6,94,30.05,3.0,Calm,Calm,-,N/A,,Scattered Clouds,0,2013-08-02 11:19:00
7:53 AM,64.9,63.0,93,30.01,7.0,Calm,Calm,-,N/A,,Clear,0,2013-08-02 11:53:00
8:53 AM,70.0,66.0,87,30.03,10.0,Calm,Calm,-,N/A,,Clear,0,2013-08-02 12:53:00
9:53 AM,73.9,64.9,73,30.04,10.0,ENE,3.5,-,N/A,,Clear,60,2013-08-02 13:53:00
10:53 AM,78.1,64.0,62,30.04,10.0,Calm,Calm,-,N/A,,Clear,0,2013-08-02 14:53:00
11:53 AM,79.0,63.0,58,30.04,10.0,Variable,3.5,-,N/A,,Clear,0,2013-08-02 15:53:00
12:53 PM,82.0,63.0,52,30.04,10.0,Calm,Calm,-,N/A,,Partly Cloudy,0,2013-08-02 16:53:00
1:53 PM,82.9,61.0,47,30.04,10.0,Variable,3.5,-,N/A,,Clear,0,2013-08-02 17:53:00
2:53 PM,84.9,59.0,41,30.02,10.0,Variable,4.6,-,N/A,,Clear,0,2013-08-02 18:53:00
3:53 PM,87.1,57.9,37,30.02,10.0,North,4.6,-,N/A,,Clear,360,2013-08-02 19:53:00
4:53 PM,86.0,60.1,41,30.01,10.0,North,3.5,-,N/A,,Clear,360,2013-08-02 20:53:00
5:53 PM,84.9,60.1,43,30.00,10.0,Calm,Calm,-,N/A,,Clear,0,2013-08-02 21:53:00
6:53 PM,84.9,60.1,43,29.99,10.0,NW,4.6,-,N/A,,Clear,320,2013-08-02 22:53:00
7:53 PM,82.0,64.9,56,30.00,10.0,Variable,3.5,-,N/A,,Clear,0,2013-08-02 23:53:00
8:53 PM,77.0,66.9,71,30.01,10.0,Calm,Calm,-,N/A,,Clear,0,2013-08-03 00:53:00
9:53 PM,73.0,66.9,81,30.02,10.0,Calm,Calm,-,N/A,,Clear,0,2013-08-03 01:53:00
10:53 PM,71.1,68.0,90,30.03,10.0,Calm,Calm,-,N/A,,Clear,0,2013-08-03 02:53:00
11:53 PM,70.0,66.9,90,30.02,10.0,Calm,Calm,-,N/A,,Clear,0,2013-08-03 03:53:00